{"data":{"norad_id":51053,"intl_designator":"2022-002BX","name":"HYPSO-1","alt_names":[],"object_type":"PAYLOAD","status":"ACTIVE","operator":null,"country":"NOR","launch_date":"2022-01-13","launch_site_code":"AFETR","launch_vehicle":null,"mission":null,"orbit_class":"UNKNOWN","rcs_meters":null,"size_class":null,"mass_kg":null,"dimensions":null,"purposes":[],"wikipedia_slug":null,"has_3d_model":false,"image_url":null,"decayed_at":null,"tle_current":{"epoch":"2026-05-25T04:19:52.196736Z","epoch_age_seconds":53438,"freshness":"FRESH","line1":"1 51053U 22002BX  26145.18046524  .00060565  00000+0  54470-3 0  9992","line2":"2 51053  97.2841 225.2159 0001020  75.4868 284.6506 15.68053391243308","mean_motion":15.68053391,"eccentricity":0.000102,"inclination_deg":97.2841,"raan_deg":225.2159,"arg_perigee_deg":75.4868,"mean_anomaly_deg":284.6506,"bstar":0.0005447,"rev_number":24330,"period_min":91.833607724394,"perigee_km":363.78375829147,"apogee_km":365.15925042636,"semimajor_km":6742.6085043589,"source":"CELESTRAK","updated_at":"2026-05-25T13:37:57.378827Z"}}}